Weather History for Lexington, NC

Change the Weather History Date:

Friday, December 14, 2012

  Actual Average (KINT) Record (KINT)
Temperature  
Mean Temperature 38 °F -  
Max Temperature 56 °F 48 °F 72 °F (1984)
Min Temperature 21 °F 32 °F 13 °F (1970)
Degree Days  
Heating Degree Days 26    
Moisture  
Dew Point 25 °F    
Average Humidity 71    
Maximum Humidity 100    
Minimum Humidity 31    
Precipitation  
Precipitation 0.00 in - - ()
Sea Level Pressure  
Sea Level Pressure 30.31 in    
Wind  
Wind Speed 0 mph (WSW)    
Max Wind Speed 4 mph    
Max Gust Speed -    
Visibility 10 miles    
Events      
Averages and records for this station are not official NWS values.
T = Trace of Precipitation, MM = Missing Value Source: NWS Daily Summary

Daily Weather History Graph

Daily Weather History Graph

Search for Another Location

Airport:

Trip Planner

Search our weather history database for the weather conditions in past years. The results will help you decide how hot, cold, wet, or windy it might be!

Date:

Astronomy

Dec. 14, 2012 Rise Set
Actual Time 7:23 AM EST 5:08 PM EST
Civil Twilight 6:55 AM EST 5:37 PM EST
Nautical Twilight 6:23 AM EST 6:09 PM EST
Astronomical Twilight 5:51 AM EST 6:40 PM EST
Moon 8:28 AM EST (12/14) 6:57 PM EST (12/14)
Length of Visible Light 10h 42m
Length of Day
9h 45m
Waxing Crescent, 3% of the Moon is Illuminated
Dec 14
Waxing Crescent
Dec 20
First Quarter
Dec 28
Full
Jan 4
Last Quarter
Jan 11
New

Hourly Weather History & Observations

Time (EST) Temp. Windchill Dew Point Humidity Pressure Visibility Wind Dir Wind Speed Gust Speed Precip Events Conditions
12:15 AM 28.4 °F - 23.7 °F 83% 30.35 in 10.0 mi Calm Calm - N/A   Clear
12:35 AM 28.2 °F - 23.5 °F 83% 30.35 in 10.0 mi Calm Calm - N/A   Clear
12:55 AM 28.0 °F - 24.4 °F 86% 30.35 in 10.0 mi Calm Calm - N/A   Clear
1:15 AM 27.7 °F - 23.9 °F 86% 30.35 in 10.0 mi Calm Calm - N/A   Clear
1:35 AM 26.4 °F - 23.2 °F 88% 30.34 in 10.0 mi Calm Calm - N/A   Clear
1:55 AM 26.6 °F - 23.0 °F 86% 30.35 in 10.0 mi Calm Calm - N/A   Clear
2:15 AM 26.6 °F - 23.4 °F 88% 30.34 in 10.0 mi Calm Calm - N/A   Clear
2:35 AM 25.7 °F - 23.0 °F 89% 30.34 in 10.0 mi Calm Calm - N/A   Clear
2:55 AM 26.2 °F - 23.0 °F 88% 30.34 in 10.0 mi Calm Calm - N/A   Clear
3:15 AM 26.2 °F - 23.4 °F 89% 30.34 in 10.0 mi Calm Calm - N/A   Clear
3:35 AM 25.3 °F - 23.0 °F 91% 30.33 in 10.0 mi Calm Calm - N/A   Clear
3:55 AM 24.6 °F - 23.4 °F 95% 30.34 in 10.0 mi Calm Calm - N/A   Clear
4:15 AM 24.8 °F - 23.2 °F 94% 30.34 in 10.0 mi Calm Calm - N/A   Clear
4:35 AM 25.0 °F - 23.0 °F 92% 30.34 in 10.0 mi Calm Calm - N/A   Clear
4:55 AM 24.4 °F - 22.6 °F 93% 30.34 in 10.0 mi Calm Calm - N/A   Clear
5:15 AM 24.1 °F - 22.3 °F 93% 30.34 in 10.0 mi Calm Calm - N/A   Clear
6:15 AM 23.2 °F - 21.4 °F 93% 30.36 in 10.0 mi Calm Calm - N/A   Clear
6:35 AM 23.7 °F - 22.1 °F 94% 30.36 in 10.0 mi Calm Calm - N/A   Clear
6:55 AM 23.7 °F - 21.7 °F 92% 30.37 in 10.0 mi Calm Calm - N/A   Clear
7:15 AM 23.2 °F - 21.4 °F 93% 30.36 in 10.0 mi Calm Calm - N/A   Clear
7:35 AM 21.9 °F - 21.0 °F 96% 30.35 in 10.0 mi Calm Calm - N/A   Clear
7:55 AM 23.4 °F - 23.4 °F 100% 30.35 in 10.0 mi Calm Calm - N/A   Clear
8:15 AM 25.3 °F - 23.2 °F 91% 30.34 in 10.0 mi Calm Calm - N/A   Clear
8:35 AM 28.9 °F - 25.3 °F 86% 30.35 in 10.0 mi Calm Calm - N/A   Clear
8:55 AM 30.7 °F - 25.7 °F 82% 30.36 in 10.0 mi Calm Calm - N/A   Clear
9:15 AM 33.3 °F - 24.8 °F 71% 30.37 in 10.0 mi Calm Calm - N/A   Clear
9:35 AM 35.6 °F - 25.5 °F 67% 30.37 in 10.0 mi Calm Calm - N/A   Clear
9:55 AM 37.8 °F - 26.4 °F 64% 30.38 in 10.0 mi Calm Calm - N/A   Clear
10:15 AM 40.5 °F - 26.6 °F 58% 30.37 in 10.0 mi Calm Calm - N/A   Clear
10:35 AM 42.8 °F - 28.2 °F 56% 30.38 in 10.0 mi Calm Calm - N/A   Clear
10:55 AM 44.6 °F 43.1 °F 27.7 °F 52% 30.37 in 10.0 mi SW 3.5 mph - N/A   Clear
11:15 AM 46.6 °F - 27.1 °F 47% 30.36 in 10.0 mi SW 3.5 mph - N/A   Clear
11:35 AM 48.4 °F - 27.0 °F 43% 30.35 in 10.0 mi West 3.5 mph - N/A   Clear
11:55 AM 49.5 °F - 25.5 °F 39% 30.33 in 10.0 mi West 3.5 mph - N/A   Clear
12:15 PM 50.5 °F - 26.2 °F 39% 30.31 in 10.0 mi WSW 3.5 mph - N/A   Clear
12:35 PM 51.8 °F - 26.6 °F 38% 30.30 in 10.0 mi Calm Calm - N/A   Clear
12:55 PM 52.3 °F - 26.2 °F 36% 30.29 in 10.0 mi Calm Calm - N/A   Clear
1:15 PM 54.3 °F - 27.7 °F 36% 30.28 in 10.0 mi Calm Calm - N/A   Clear
3:35 PM 56.1 °F - 25.9 °F 31% 30.23 in 10.0 mi Calm Calm - N/A   Clear
3:55 PM 55.8 °F - 25.2 °F 31% 30.24 in 10.0 mi Calm Calm - N/A   Clear
4:15 PM 55.2 °F - 25.0 °F 31% 30.24 in 10.0 mi Calm Calm - N/A   Clear
4:35 PM 53.6 °F - 25.3 °F 34% 30.24 in 10.0 mi Calm Calm - N/A   Clear
5:15 PM 49.3 °F - 23.9 °F 37% 30.24 in 10.0 mi Calm Calm - N/A   Clear
5:35 PM 46.8 °F - 24.1 °F 41% 30.24 in 10.0 mi Calm Calm - N/A   Clear
5:55 PM 45.7 °F - 24.8 °F 44% 30.24 in 10.0 mi Calm Calm - N/A   Clear
6:15 PM 43.9 °F - 26.1 °F 50% 30.24 in 10.0 mi Calm Calm - N/A   Clear
6:35 PM 41.9 °F - 26.1 °F 53% 30.24 in 10.0 mi Calm Calm - N/A   Clear
6:55 PM 40.1 °F - 26.8 °F 59% 30.24 in 10.0 mi Calm Calm - N/A   Clear
7:15 PM 39.2 °F - 27.5 °F 63% 30.25 in 10.0 mi Calm Calm - N/A   Clear
7:35 PM 38.3 °F - 26.6 °F 63% 30.25 in 10.0 mi Calm Calm - N/A   Clear
7:55 PM 35.1 °F - 27.0 °F 72% 30.25 in 10.0 mi Calm Calm - N/A   Clear
8:15 PM 34.7 °F - 26.4 °F 72% 30.25 in 10.0 mi Calm Calm - N/A   Clear
8:35 PM 33.4 °F - 25.9 °F 74% 30.24 in 10.0 mi Calm Calm - N/A   Clear
8:55 PM 33.8 °F - 27.1 °F 77% 30.25 in 10.0 mi Calm Calm - N/A   Clear
9:35 PM 32.5 °F - 26.8 °F 79% 30.26 in 10.0 mi Calm Calm - N/A   Clear
9:55 PM 30.4 °F - 26.2 °F 85% 30.24 in 10.0 mi Calm Calm - N/A   Clear
10:15 PM 30.0 °F - 26.1 °F 85% 30.25 in 10.0 mi Calm Calm - N/A   Clear
10:35 PM 30.9 °F - 26.4 °F 83% 30.25 in 10.0 mi Calm Calm - N/A   Clear
10:55 PM 31.8 °F - 26.4 °F 80% 30.24 in 10.0 mi Calm Calm - N/A   Clear
11:15 PM 31.8 °F - 26.8 °F 82% 30.24 in 10.0 mi Calm Calm - N/A   Clear
11:35 PM 31.1 °F - 26.4 °F 83% 30.24 in 10.0 mi Calm Calm - N/A   Clear
11:55 PM 31.8 °F - 26.4 °F 80% 30.25 in 10.0 mi Calm Calm - N/A   Clear